Вернуться в каталог

FENGYUN 1C DEB

АктивенSSO
NORAD 31320·DEBRIS·🇨🇳 China

Запущен May 10, 1999 с Taiyuan Satellite Launch Center

Loading…

Ближайшие Пролёты (ближайшие 24 часа)

TLE

УстаревающийSource: Space-Track

Эпоха: Sep 10, 2026, 06:33 UTC

1 31320U 99025BPY 26253.27302519  .00002491  00000-0  10704-2 0  9991
2 31320  98.3108  55.9715 0098150  31.7617 328.9432 14.22953625642169

Отслеживайте FENGYUN 1C DEB в реальном времени с AllMySat

Download on the App Store